| time (UTC) | temp C | wind direction | speed KPH | gust KPH | rain 1hr cm | rain 24hr cm | rain mn cm | humidity % | barometer mb |
| 20260504190100 | 25 | 195 | 3.2 | 14.5 | 0.00 | 0.00 | 0.00 | 44 | 1015.3 |
| 20260504184539 | 24 | 207 | 9.7 | 19.3 | 0.00 | 0.00 | 0.00 | 41 | 1015.5 |
| 20260504183035 | 24 | 279 | 6.4 | 14.5 | 0.00 | 0.00 | 0.00 | 41 | 1015.7 |
| 20260504181543 | 23 | 91 | 0.0 | 14.5 | 0.00 | 0.00 | 0.00 | 40 | 1015.9 |
| 20260504180041 | 23 | 272 | 4.8 | 9.7 | 0.00 | 0.00 | 0.00 | 40 | 1016.0 |
| 20260504174542 | 23 | 285 | 6.4 | 12.9 | 0.00 | 0.00 | 0.00 | 38 | 1016.2 |
| 20260504173036 | 23 | 284 | 3.2 | 8.0 | 0.00 | 0.00 | 0.00 | 38 | 1016.3 |
| 20260504171535 | 22 | 173 | 4.8 | 11.3 | 0.00 | 0.00 | 0.00 | 41 | 1016.5 |
| 20260504081549 | 9 | 0 | 0.0 | 6.4 | 0.00 | 0.00 | 0.00 | 79 | 1017.1 |
| 20260504044536 | 12 | 259 | 1.6 | 9.7 | 0.00 | 0.00 | 0.00 | 61 | 1017.2 |
| 20260504043035 | 13 | 277 | 1.6 | 6.4 | 0.00 | 0.00 | 0.00 | 61 | 1017.3 |
| 20260504041534 | 13 | 286 | 1.6 | 6.4 | 0.00 | 0.00 | 0.00 | 59 | 1017.4 |
| 20260504040043 | 13 | 285 | 3.2 | 11.3 | 0.00 | 0.00 | 0.00 | 58 | 1017.4 |
| 20260504034542 | 14 | 290 | 6.4 | 16.1 | 0.00 | 0.00 | 0.00 | 57 | 1017.5 |
| 20260504033040 | 14 | 286 | 3.2 | 17.7 | 0.00 | 0.00 | 0.00 | 57 | 1017.4 |
| 20260504031539 | 15 | 268 | 1.6 | 11.3 | 0.00 | 0.00 | 0.00 | 55 | 1017.4 |
| 20260504030036 | 15 | 284 | 4.8 | 14.5 | 0.00 | 0.00 | 0.00 | 53 | 1017.2 |
| 20260504024536 | 15 | 269 | 3.2 | 17.7 | 0.00 | 0.00 | 0.00 | 51 | 1017.1 |
| 20260504023043 | 16 | 312 | 4.8 | 14.5 | 0.00 | 0.00 | 0.00 | 51 | 1017.0 |
| 20260504021542 | 16 | 268 | 4.8 | 16.1 | 0.00 | 0.00 | 0.00 | 50 | 1016.8 |
| 20260504020039 | 16 | 273 | 8.0 | 14.5 | 0.00 | 0.00 | 0.00 | 49 | 1016.6 |
| 20260504014552 | 16 | 302 | 4.8 | 14.5 | 0.00 | 0.00 | 0.00 | 49 | 1016.4 |
| 20260504013047 | 16 | 279 | 4.8 | 11.3 | 0.00 | 0.00 | 0.00 | 50 | 1016.3 |
| 20260504011536 | 16 | 0 | 4.8 | 12.9 | 0.00 | 0.00 | 0.00 | 49 | 1016.1 |
| 20260504010051 | 16 | 232 | 1.6 | 11.3 | 0.00 | 0.00 | 0.00 | 50 | 1016.1 |
| 20260504004541 | 16 | 285 | 3.2 | 9.7 | 0.00 | 0.00 | 0.00 | 49 | 1016.0 |
| 20260504003042 | 17 | 0 | 0.0 | 11.3 | 0.00 | 0.00 | 0.00 | 49 | 1015.8 |
| 20260504001547 | 17 | 0 | 1.6 | 9.7 | 0.00 | 0.00 | 0.00 | 48 | 1015.7 |
| 20260504000043 | 18 | 0 | 1.6 | 8.0 | 0.00 | 0.00 | 0.00 | 46 | 1015.6 |
| 20260503234550 | 18 | 242 | 3.2 | 8.0 | 0.00 | 0.00 | 0.00 | 45 | 1015.6 |
| 20260503233048 | 19 | 231 | 4.8 | 16.1 | 0.00 | 0.00 | 0.00 | 42 | 1015.5 |
| 20260503231543 | 20 | 254 | 4.8 | 16.1 | 0.00 | 0.00 | 0.00 | 42 | 1015.6 |
| 20260503230039 | 20 | 271 | 8.0 | 19.3 | 0.00 | 0.00 | 0.00 | 41 | 1015.7 |
| 20260503224539 | 20 | 209 | 6.4 | 17.7 | 0.00 | 0.00 | 0.00 | 39 | 1015.7 |
| 20260503223035 | 20 | 204 | 6.4 | 22.5 | 0.00 | 0.00 | 0.00 | 38 | 1015.7 |
| 20260503221544 | 21 | 209 | 4.8 | 16.1 | 0.00 | 0.00 | 0.00 | 37 | 1015.8 |
| 20260503220047 | 21 | 218 | 6.4 | 20.9 | 0.00 | 0.00 | 0.00 | 37 | 1015.9 |
| 20260503214540 | 21 | 186 | 4.8 | 17.7 | 0.00 | 0.00 | 0.00 | 37 | 1016.0 |
| 20260503213035 | 21 | 225 | 4.8 | 16.1 | 0.00 | 0.00 | 0.00 | 37 | 1016.1 |
| 20260503211534 | 21 | 240 | 8.0 | 16.1 | 0.00 | 0.00 | 0.00 | 36 | 1016.2 |
| 20260503210044 | 20 | 215 | 6.4 | 17.7 | 0.00 | 0.00 | 0.00 | 37 | 1016.2 |
| 20260503204557 | 20 | 325 | 6.4 | 19.3 | 0.00 | 0.00 | 0.00 | 40 | 1016.5 |
| 20260503203042 | 20 | 205 | 6.4 | 22.5 | 0.00 | 0.00 | 0.00 | 39 | 1016.6 |
| 20260503201541 | 20 | 190 | 4.8 | 17.7 | 0.00 | 0.00 | 0.00 | 39 | 1016.9 |
| 20260503200045 | 20 | 232 | 6.4 | 14.5 | 0.00 | 0.00 | 0.00 | 38 | 1017.3 |
| 20260503194543 | 20 | 254 | 9.7 | 17.7 | 0.00 | 0.00 | 0.00 | 38 | 1017.6 |
| 20260503193039 | 20 | 290 | 4.8 | 14.5 | 0.00 | 0.00 | 0.00 | 38 | 1017.9 |
| 20260503191543 | 20 | 226 | 6.4 | 16.1 | 0.00 | 0.00 | 0.00 | 42 | 1018.1 |